Vorticity
nan nan nan nan nan nan nan nan nan nan nan nan nan nan nan nan nan nan nan nan nan nan nan nan nan nan nan nan nan nan nan nan nan nan nan nan nan nan nan nan nan nan nan
nan 8 7 7 7 7 8 8 8 7 6 7 7 6 7 7 7 10 10 2 2 4 6 7 8 9 8 6 4 3 5 6 6 5 6 6 6 6 5 6 6 8 nan
nan 6 7 7 6 7 8 8 7 7 7 7 7 7 7 6 7 8 8 10 3 -2 3 4 7 8 8 6 4 6 6 6 7 7 7 6 6 7 7 6 7 7 nan
nan 6 7 8 7 7 6 7 7 7 7 7 7 7 7 7 6 6 6 7 9 7 1 1 4 7 6 7 7 6 7 7 7 7 6 7 7 7 7 7 6 7 nan
nan 6 7 9 7 7 8 7 8 8 8 8 7 8 8 7 5 5 7 7 7 8 9 7 1 2 3 4 6 6 7 7 6 7 7 7 8 6 6 7 8 7 nan
nan 6 8 7 7 7 8 8 8 8 9 8 7 7 7 7 6 7 6 6 6 7 7 11 8 -1 -0 2 4 5 7 8 7 7 7 7 7 7 8 7 7 8 nan
nan 6 7 7 8 8 8 8 7 8 8 7 5 6 6 7 6 6 6 5 7 7 7 9 8 10 3 -3 -0 5 6 7 8 7 7 7 7 8 7 8 7 7 nan
nan 7 7 8 8 8 8 8 5 5 7 8 7 7 7 7 9 7 6 6 5 8 7 6 8 9 7 3 1 1 4 6 7 7 7 7 8 8 7 7 7 8 nan
nan 7 7 8 8 7 8 9 8 6 5 7 8 10 10 10 10 9 6 5 6 6 9 6 6 7 8 5 5 3 2 6 7 7 7 7 8 8 8 8 7 8 nan
nan 8 8 7 7 8 9 8 9 9 8 8 7 7 7 12 12 8 8 7 6 7 7 8 8 6 5 7 6 2 2 5 6 7 7 7 7 7 8 8 8 8 nan
nan 7 8 7 7 8 8 8 10 8 9 9 9 8 7 8 8 8 12 10 7 7 6 7 6 7 7 7 7 -1 2 6 5 6 6 7 6 8 8 8 8 8 nan
nan 9 7 7 8 9 9 8 8 9 9 9 10 9 9 9 8 9 9 5 9 9 7 10 8 6 6 7 6 2 4 9 6 6 7 6 6 7 7 7 8 8 nan
nan 11 8 7 8 9 8 8 8 9 9 8 8 8 9 9 9 10 10 9 8 8 9 7 7 6 7 6 4 4 8 9 6 5 7 5 6 7 7 7 8 9 nan
nan 11 8 9 9 8 7 7 9 8 9 9 10 8 8 8 8 8 9 10 11 11 8 9 6 6 6 7 6 4 10 5 1 8 7 5 6 6 6 7 8 8 nan
nan 10 9 9 8 8 8 7 7 9 8 9 9 9 8 8 9 8 8 7 9 10 12 10 3 5 6 6 7 8 5 2 10 11 6 6 6 5 6 8 8 8 nan
nan 9 9 10 9 8 7 8 8 9 7 9 9 9 7 9 8 8 9 8 8 8 7 3 7 6 7 7 6 6 7 7 13 11 6 6 5 6 8 8 8 8 nan
nan 10 9 9 8 8 8 8 8 9 9 8 8 9 8 8 8 8 8 8 9 9 8 5 6 7 7 8 7 8 9 11 9 5 7 4 5 8 9 8 8 7 nan
nan 9 9 8 9 8 8 8 9 7 8 9 9 8 9 7 8 8 9 7 9 9 9 8 8 8 8 9 9 9 9 9 8 6 8 6 8 10 6 7 8 8 nan
nan 9 9 8 7 7 9 8 9 9 9 10 10 8 9 9 8 8 8 10 9 9 9 9 9 9 9 9 9 10 9 10 7 8 7 10 11 10 7 8 10 9 nan
nan 9 8 9 9 9 7 10 9 8 8 8 9 10 10 12 13 13 10 11 8 9 10 9 9 9 9 9 9 10 9 9 8 10 11 13 10 8 12 14 10 10 nan
nan 10 8 8 8 7 10 10 10 9 8 8 8 9 5 7 10 11 13 10 11 11 10 10 9 9 7 8 9 10 8 9 10 11 12 10 11 12 11 11 7 5 nan
nan 8 8 9 8 10 14 8 9 11 10 7 7 9 8 8 5 4 7 5 7 8 8 8 8 7 7 9 9 8 9 8 10 9 7 9 10 9 11 6 5 7 nan
nan 11 10 9 7 14 12 6 5 8 10 10 9 9 7 6 10 13 10 6 9 8 5 6 7 6 6 7 8 9 9 8 9 8 10 9 11 9 9 7 0 4 nan
nan 9 9 8 9 15 13 6 4 4 8 9 9 9 9 7 11 8 8 11 11 10 10 6 7 7 5 5 8 10 11 13 12 8 10 11 10 11 9 4 8 10 nan
nan 9 10 9 12 17 12 4 3 6 8 9 10 9 10 9 6 7 10 11 9 12 14 8 8 7 5 9 10 10 10 11 12 9 10 11 8 10 10 10 12 11 nan
nan nan nan nan nan nan nan nan nan nan nan nan nan nan nan nan nan nan nan nan nan nan nan nan nan nan nan nan nan nan nan nan nan nan nan nan nan nan nan nan nan nan nan
CAPE
0 0 0 0 0 0 0 0 0 0 0 0 0 0 0 0 0 0 0 0 0 0 0 2 4 5 7 16 22 22 14 12 13 19 10 8 13 15 14 13 11 6 71
0 0 0 0 0 0 0 0 0 0 0 0 0 0 0 0 0 0 0 0 0 0 0 3 3 5 7 21 15 10 11 8 7 11 9 9 8 9 12 13 15 15 11
0 0 0 0 0 0 0 0 0 0 0 0 0 0 0 0 0 0 0 0 0 0 0 0 1 4 6 15 16 9 7 8 8 11 7 8 9 6 7 11 15 18 14
0 0 0 0 0 0 0 0 0 0 0 0 0 0 0 0 0 0 0 0 0 0 0 0 0 2 7 10 8 10 9 7 8 9 8 7 7 14 7 9 14 14 13
0 0 0 0 0 0 0 0 0 0 0 0 0 0 0 0 0 0 0 0 0 0 0 0 0 0 0 0 2 11 11 11 11 13 10 10 10 10 9 12 8 6 16
0 0 0 0 0 0 0 0 0 0 0 0 0 0 0 0 0 0 0 0 0 0 0 0 0 0 0 0 0 6 13 13 11 11 9 12 11 10 10 9 11 10 11
0 0 0 0 0 0 0 0 0 0 0 0 0 0 0 0 0 0 0 0 0 0 0 0 0 0 0 0 0 2 7 11 13 10 8 10 11 10 10 10 11 8 9
0 0 0 0 0 0 0 0 0 0 0 0 0 0 0 0 0 0 0 0 0 0 0 0 0 0 0 0 0 0 0 2 4 9 8 8 8 10 10 10 11 11 12
0 0 0 0 0 0 0 0 0 0 0 0 0 0 0 0 0 0 0 0 0 0 0 0 0 0 0 0 0 0 0 0 1 7 9 7 8 8 10 11 11 12 17
0 0 0 0 0 0 0 0 0 0 0 0 0 0 0 0 0 0 0 0 0 0 0 0 0 0 0 0 0 0 0 0 0 2 10 9 9 10 12 12 11 11 11
0 0 0 0 0 0 0 0 0 0 0 0 0 0 0 0 0 0 0 0 0 0 0 0 0 0 0 0 0 0 0 0 0 0 3 5 9 9 11 13 16 16 13
0 0 0 0 0 0 0 0 0 0 0 0 0 0 0 0 0 0 0 0 0 0 0 0 0 0 0 0 0 0 0 0 0 0 1 0 1 3 9 11 14 14 17
0 0 0 0 0 0 0 0 0 0 0 0 0 0 0 0 0 0 0 0 0 0 0 0 0 0 0 0 0 0 0 0 0 0 0 0 0 0 3 6 10 11 13
0 0 0 0 0 0 0 0 0 0 0 0 0 0 0 0 0 0 0 0 0 0 0 0 0 0 0 0 0 0 0 0 0 0 0 0 0 0 1 3 5 6 9
0 0 0 0 0 0 0 0 0 0 0 0 0 0 0 0 0 0 0 0 0 0 0 0 0 0 0 0 0 0 0 0 0 0 0 0 0 0 0 0 2 4 6
0 0 0 0 0 0 0 0 0 0 0 0 0 0 0 0 0 0 0 0 0 0 0 0 0 0 0 0 0 0 0 0 0 0 0 0 0 0 0 0 0 2 5
0 0 0 0 0 0 0 0 0 0 0 0 0 0 0 0 0 0 0 0 0 0 0 0 0 0 0 0 0 0 0 0 0 0 0 0 0 0 0 0 0 1 0
0 0 0 0 0 0 0 0 0 0 0 0 0 0 0 0 0 0 0 0 0 0 0 0 0 0 0 0 0 0 0 0 0 0 0 0 0 0 0 0 0 0 0
0 0 0 0 0 0 0 0 0 0 0 0 0 0 0 0 0 0 0 0 0 0 0 0 0 0 0 0 0 0 0 0 0 0 0 0 0 0 0 0 0 0 0
2 1 2 2 3 2 0 0 0 0 0 0 0 0 0 0 0 0 0 0 0 0 0 0 0 0 0 0 0 0 0 0 0 0 0 0 0 0 0 0 1 0 0
5 7 9 7 6 2 0 2 2 0 0 0 0 0 0 0 0 0 0 1 0 1 0 0 0 0 0 0 0 0 0 0 0 0 0 0 0 0 0 0 0 0 0
13 8 10 10 8 0 1 6 5 1 0 0 0 0 0 0 0 0 0 0 0 1 1 0 0 0 0 0 0 0 0 0 0 0 0 0 0 0 2 3 1 6 0
16 11 15 7 6 3 1 2 0 1 0 0 0 0 0 0 0 1 0 0 0 0 0 2 5 3 3 2 1 4 1 0 1 2 8 18 10 9 7 0 5 0 0
6 11 9 7 6 6 5 4 2 2 3 1 1 0 1 2 3 0 5 5 6 8 8 10 7 10 11 6 6 9 11 10 21 25 13 26 24 23 47 35 0 1 4
1 1 3 1 5 7 8 4 0 0 0 0 1 1 2 6 0 0 0 2 5 7 12 1 2 0 4 3 6 11 11 24 25 10 31 31 27 35 39 26 19 0 3
0 1 1 9 7 6 9 3 0 0 0 0 0 0 0 0 0 0 0 1 3 5 2 2 11 3 7 19 5 12 30 34 42 31 10 28 33 33 27 19 22 4 28